Meteopurmerend
purmerend
Purmerend - Baaienwijk



My webcam  My webcam


Onweer radar Meer informatie blitzortung!


Regen radar Meer informatie rain snow radar


Bezoek onze andere website:

CandyAppleRed WebdesignWebdesign Purmerend Candy Apple Red

MeteopurmerendBlog

Template documentation
and downloads



Het weer levert geen direct gevaar op.    Er zijn geen waarschuwingen afgegeven.

15 daagse weersverwachting Leganés (ES)

  • Overzicht
  • Per uur
  • 15 dagen
  • Extra
  • Vergelijk
  • Kaarten
  • Dagkaart
  • Meer »
  • Info
  • Statistieken
  • Directe link
    Temp 6h Neerslag Wind  
 07:53     20:43    Daglengte: 12:50 Vandaag
08:00
 
2
14:00
17°
 
6
20:00
16°
 
6
 07:52     20:44    Daglengte: 12:52 Morgen
02:00
11°
 
4
08:00
0.2 mm
3
14:00
15°
 
3
20:00
15°
0.3 mm
2
 07:50     20:45    Daglengte: 12:55 Maandag 06 Apr
02:00
12°
9.9 mm
3
08:00
12°
26.2 mm
4
14:00
14°
44.2 mm
4
20:00
15°
49.0 mm
2
 07:48     20:46    Daglengte: 12:58 Dinsdag 07 Apr
02:00
11°
52.4 mm
4
Locatie info
Region: Madrid
Latitude: 40.3280°N
Longitude: -3.7652°E
672 masl
Postcode: 28911
Temp/Neerslag /Baro Onweer/Dauwpunt
    Temp Baro 1h Neerslag Dauwpunt Wind UV Bewolking  
 07:53     20:43    Daglengte: 12:50 Vandaag
05:00
Voelt als: 3.4°
1016.2 hPa   1.5°
2
Windvlaag: -0.8 m/s
0%
06:00
Voelt als: 2.7°
1016.7 hPa   1.5°
3
Windvlaag: 0 m/s
0%
07:00
Voelt als: 2.3°
1017.2 hPa   1.7°
2
Windvlaag: -0.2 m/s
0%
08:00
Voelt als: 1.7°
1017.6 hPa   2.0°
2
Windvlaag: -0.3 m/s
2%
09:00
Voelt als: 2.7°
1018.3 hPa   2.8°
3
Windvlaag: -0.5 m/s
5%
10:00
Voelt als: 5.4°
1018.3 hPa   3.7°
3
Windvlaag: -0.8 m/s
6%
11:00
10°
Voelt als: 8.1°
1017.7 hPa   4.4°
3
Windvlaag: -0.6 m/s
2%
12:00
13°
1016.9 hPa   4.3°
4
Windvlaag: 0 m/s
0%
13:00
15°
1015.8 hPa   3.0°
5
Windvlaag: 1.7 m/s
0%
14:00
17°
1014.7 hPa   2.0°
6
Windvlaag: 2.9 m/s
16%
15:00
18°
1014.0 hPa   2.1°
6
Windvlaag: 3.5 m/s
45%
16:00
18°
1013.2 hPa   2.4°
6
Windvlaag: 3.8 m/s
70%
17:00
18°
1012.7 hPa   2.4°
6
Windvlaag: 3.8 m/s
86%
18:00
18°
1012.5 hPa   2.6°
6
Windvlaag: 3.7 m/s
74%
19:00
17°
1012.7 hPa   3.4°
6
Windvlaag: 3.3 m/s
81%
20:00
16°
1013.1 hPa   3.9°
6
Windvlaag: 3.1 m/s
83%
21:00
15°
1013.6 hPa   3.8°
6
Windvlaag: 3.8 m/s
80%
22:00
14°
1014.5 hPa   4.0°
7
Windvlaag: 5 m/s
87%
23:00
13°
1015.3 hPa   4.4°
7
Windvlaag: 5 m/s
86%
 07:52     20:44    Daglengte: 12:52 Morgen
00:00
12°
1015.9 hPa   4.6°
6
Windvlaag: 4.9 m/s
88%
01:00
12°
1016.4 hPa   5.0°
6
Windvlaag: 4.6 m/s
89%
02:00
11°
1016.9 hPa
32%
5.5°
4
Windvlaag: 4.4 m/s
87%
03:00
10°
1017.0 hPa
68%
5.5°
4
Windvlaag: 3.3 m/s
85%
04:00
10°
Voelt als: 7.8°
1017.0 hPa
68%
5.0°
4
Windvlaag: 3.4 m/s
88%
05:00
Voelt als: 7.5°
1017.0 hPa 0.2 mm
80%
4.8°
4
Windvlaag: 3.4 m/s
90%
06:00
Voelt als: 7.2°
1017.2 hPa
82%
4.9°
4
Windvlaag: 3 m/s
90%
07:00
Voelt als: 7.0°
1017.6 hPa
82%
4.5°
4
Windvlaag: 3 m/s
86%
08:00
Voelt als: 7.0°
1018.2 hPa
44%
4.3°
3
Windvlaag: 3 m/s
70%
09:00
Voelt als: 7.3°
1018.9 hPa
72%
4.5°
3
Windvlaag: 2.9 m/s
54%
10:00
10°
1019.1 hPa
33%
4.5°
3
Windvlaag: 2.6 m/s
87%
11:00
11°
1019.1 hPa
30%
4.9°
3
Windvlaag: 2.6 m/s
84%
12:00
12°
1018.8 hPa
66%
5.3°
3
Windvlaag: 2.7 m/s
77%
13:00
14°
1018.3 hPa
76%
5.2°
3
Windvlaag: 2.3 m/s
81%
14:00
15°
1017.3 hPa
70%
5.5°
3
Windvlaag: 2.4 m/s
88%
15:00
16°
1016.8 hPa
79%
6.1°
3
Windvlaag: 2.5 m/s
79%
16:00
16°
1016.3 hPa
78%
6.2°
3
Windvlaag: 2.6 m/s
70%
17:00
17°
1015.5 hPa
82%
6.1°
3
Windvlaag: 3.1 m/s
65%
18:00
17°
1015.4 hPa
82%
6.2°
3
Windvlaag: 3.1 m/s
63%
19:00
17°
1015.4 hPa
82%
7.1°
3
Windvlaag: 3 m/s
72%
20:00
15°
1015.8 hPa 0.3 mm
78%
8.9°
2
Windvlaag: 2.7 m/s
77%
21:00
14°
1016.2 hPa
76%
10.3°
1
Windvlaag: 2.2 m/s
87%
22:00
14°
1017.0 hPa
70%
10.5°
2
Windvlaag: 1.3 m/s
88%
23:00
13°
1017.6 hPa
60%
10.7°
2
Windvlaag: 0.8 m/s
100%
 07:50     20:45    Daglengte: 12:55 Maandag 06 Apr
00:00
12°
1017.5 hPa 2.1 mm
100%
10.9°
2
Windvlaag: 1.7 m/s
99%
01:00
12°
1017.4 hPa 4.5 mm
100%
10.8°
3
Windvlaag: 2.3 m/s
98%
02:00
12°
1017.3 hPa 3.4 mm
100%
10.7°
3
Windvlaag: 2.3 m/s
96%
03:00
12°
1017.0 hPa 4.8 mm
100%
10.4°
4
Windvlaag: 3.3 m/s
97%
04:00
11°
1016.7 hPa 3.7 mm
100%
10.2°
4
Windvlaag: 3.4 m/s
100%
05:00
11°
1016.5 hPa 4.3 mm
100%
10.3°
4
Windvlaag: 3.1 m/s
100%
06:00
11°
1016.5 hPa 3.9 mm
100%
10.4°
4
Windvlaag: 2.9 m/s
98%
07:00
12°
1016.8 hPa 3.9 mm
100%
10.6°
4
Windvlaag: 3.3 m/s
100%
08:00
12°
1017.2 hPa 5.6 mm
100%
10.2°
4
Windvlaag: 3.3 m/s
87%
09:00
12°
1018.1 hPa 8.6 mm
100%
10.2°
4
Windvlaag: 0.9 m/s
83%
10:00
12°
1018.8 hPa 8.7 mm
100%
10.5°
5
Windvlaag: 0.7 m/s
87%
11:00
13°
1019.2 hPa 9.2 mm
100%
10.0°
4
Windvlaag: 0.5 m/s
94%
12:00
14°
1019.7 hPa 5.8 mm
100%
9.0°
4
Windvlaag: 0.5 m/s
90%
13:00
14°
1020.0 hPa 5.9 mm
100%
8.9°
4
Windvlaag: 0.6 m/s
89%
14:00
14°
1020.0 hPa 6.0 mm
100%
9.4°
4
Windvlaag: 0.6 m/s
93%
15:00
15°
1020.0 hPa 5.8 mm
100%
9.3°
4
Windvlaag: 0.7 m/s
92%
16:00
16°
1019.6 hPa 9.4 mm
100%
8.5°
3
Windvlaag: 0.8 m/s
59%
17:00
16°
1019.4 hPa 5.5 mm
100%
7.4°
3
Windvlaag: 0.9 m/s
63%
18:00
17°
1019.3 hPa 9.6 mm
100%
6.7°
3
Windvlaag: 0.8 m/s
70%
19:00
16°
1019.5 hPa 9.7 mm
100%
6.6°
3
Windvlaag: 0.7 m/s
67%
20:00
15°
1020.0 hPa 9.0 mm
100%
8.0°
2
Windvlaag: 0.7 m/s
52%
21:00
14°
1020.5 hPa 8.6 mm
100%
8.2°
2
Windvlaag: 2.8 m/s
48%
22:00
14°
1021.2 hPa 8.7 mm
100%
8.6°
2
Windvlaag: 1.6 m/s
43%
23:00
13°
1021.9 hPa 8.7 mm
100%
8.7°
2
Windvlaag: 2.5 m/s
49%
 07:48     20:46    Daglengte: 12:58 Dinsdag 07 Apr
00:00
12°
1022.5 hPa 8.8 mm
100%
9.0°
3
Windvlaag: 4.3 m/s
50%
01:00
12°
1022.8 hPa 8.8 mm
100%
9.2°
3
Windvlaag: 4.9 m/s
31%
02:00
11°
1023.3 hPa 8.7 mm
100%
9.4°
4
Windvlaag: 0.7 m/s
35%
03:00
10°
1024.3 hPa 25.4 mm
100%
8.4°
4
Windvlaag: 4.2 m/s
30%
04:00
10°
Voelt als: 7.6°
1024.5 hPa 25.5 mm
100%
8.0°
4
Windvlaag: 4.2 m/s
36%
Temp/Neerslag /Baro Onweer/Dauwpunt
    Temp Baro Neerslag Dauwpunt Wind Bewolking  
 07:53     20:43    Daglengte: 12:50 Vandaag
05:00
Voelt als: 3.4°
1016.2 hPa   1.5°
2
0%
08:00
Voelt als: 1.7°
1017.6 hPa   2.0°
2
2%
11:00
10°
Voelt als: 8.1°
1017.7 hPa   4.4°
3
2%
14:00
17°
1014.7 hPa   2.0°
6
16%
17:00
18°
1012.7 hPa   2.4°
6
86%
20:00
16°
1013.1 hPa   3.9°
6
83%
23:00
13°
1015.3 hPa   4.4°
7
86%
 07:52     20:44    Daglengte: 12:52 Morgen
02:00
11°
1016.9 hPa   5.5°
4
87%
05:00
Voelt als: 7.5°
1017.0 hPa 0.2 mm 4.8°
4
90%
08:00
Voelt als: 7.0°
1018.2 hPa   4.3°
3
70%
11:00
11°
1019.1 hPa   4.9°
3
84%
14:00
15°
1017.3 hPa   5.5°
3
88%
17:00
17°
1015.5 hPa   6.1°
3
65%
20:00
15°
1015.8 hPa 0.3 mm 8.9°
2
77%
23:00
13°
1017.6 hPa   10.7°
2
100%
 07:50     20:45    Daglengte: 12:55 Maandag 06 Apr
02:00
12°
1017.3 hPa 9.9 mm 10.7°
3
96%
05:00
11°
1016.5 hPa 12.8 mm 10.3°
4
100%
08:00
12°
1017.2 hPa 13.5 mm 10.2°
4
87%
11:00
13°
1019.2 hPa 26.4 mm 10.0°
4
94%
14:00
14°
1020.0 hPa 17.7 mm 9.4°
4
93%
17:00
16°
1019.4 hPa 20.7 mm 7.4°
3
63%
20:00
15°
1020.0 hPa 28.3 mm 8.0°
2
52%
23:00
13°
1021.9 hPa 26.1 mm 8.7°
2
49%
 07:48     20:46    Daglengte: 12:58 Dinsdag 07 Apr
02:00
11°
1023.3 hPa 26.3 mm 9.4°
4
35%
05:00
Voelt als: 7.1°
1024.7 hPa 76.4 mm 7.7°
4
43%
08:00
Voelt als: 6.0°
1025.5 hPa 76.4 mm 6.8°
4
51%
11:00
13°
1025.3 hPa 10.2 mm 7.6°
2
49%
14:00
16°
1025.1 hPa 10.5 mm 7.4°
1
53%
17:00
16°
1024.1 hPa 11.0 mm 7.9°
1
29%
20:00
16°
1023.3 hPa 14.0 mm 8.6°
2
6%
23:00
13°
1025.2 hPa 15.7 mm 8.8°
2
27%
 07:47     20:47    Daglengte: 13:00 Woensdag 08 Apr
02:00
10°
Voelt als: 9.1°
1026.9 hPa 15.7 mm 8.4°
2
49%
05:00
Voelt als: 7.3°
1026.8 hPa 15.7 mm 7.3°
2
30%
08:00
Voelt als: 5.7°
1026.7 hPa 15.7 mm 6.1°
2
11%
11:00
11°
1025.7 hPa 15.7 mm 7.0°
2
39%
14:00
16°
1024.6 hPa 15.7 mm 6.9°
2
67%
17:00
16°
1023.3 hPa 15.7 mm 7.7°
1
59%
20:00
16°
1022.1 hPa 15.7 mm 8.6°
1
51%
23:00
12°
1023.5 hPa 15.8 mm 6.5°
2
28%
 07:45     20:48    Daglengte: 13:03 Donderdag 09 Apr
02:00
Voelt als: 7.2°
1024.6 hPa 15.9 mm 4.2°
3
4%
05:00
Voelt als: 5.8°
1024.4 hPa 15.9 mm 4.3°
3
12%
08:00
Voelt als: 4.6°
1024.4 hPa 15.9 mm 4.2°
2
20%
11:00
11°
1023.0 hPa 15.9 mm 5.1°
3
56%
14:00
16°
1021.6 hPa 17.5 mm 4.7°
4
91%
17:00
15°
1020.9 hPa 18.5 mm 5.2°
4
66%
20:00
14°
1020.2 hPa 18.6 mm 5.7°
4
42%
23:00
11°
1021.6 hPa 18.6 mm 6.4°
3
34%
 07:44     20:49    Daglengte: 13:05 Vrijdag 10 Apr
02:00
Voelt als: 7.6°
1022.9 hPa 18.6 mm 6.3°
2
27%
05:00
Voelt als: 6.8°
1022.6 hPa 18.6 mm 5.7°
2
44%
08:00
Voelt als: 6.0°
1022.5 hPa 18.6 mm 5.1°
2
62%
11:00
11°
1021.6 hPa 18.6 mm 6.0°
2
77%
14:00
16°
1020.5 hPa 18.6 mm 5.8°
2
92%
17:00
16°
1019.3 hPa 18.6 mm 6.2°
2
86%
20:00
15°
1018.2 hPa 18.7 mm 7.0°
2
80%
23:00
12°
1019.8 hPa 19.4 mm 7.1°
2
42%
 07:42     20:50    Daglengte: 13:08 Zaterdag 11 Apr
02:00
Voelt als: 7.9°
1021.1 hPa 38.7 mm 6.8°
2
4%
08:00
Voelt als: 5.7°
1021.5 hPa 38.8 mm 6.2°
3
14%
14:00
16°
1019.4 hPa 38.8 mm 7.2°
3
92%
20:00
16°
1017.2 hPa 38.8 mm 9.7°
4
88%
 07:41     20:51    Daglengte: 13:10 Zondag 12 Apr
02:00
13°
1019.1 hPa 38.8 mm 8.3°
3
92%
08:00
11°
1017.7 hPa 38.8 mm 8.2°
4
92%
14:00
14°
1016.2 hPa 39.7 mm 10.5°
3
92%
20:00
14°
1013.3 hPa 44.3 mm 11.2°
4
89%
 07:39     20:52    Daglengte: 13:13 Maandag 13 Apr
02:00
11°
1015.4 hPa 51.8 mm 9.2°
4
92%
08:00
Voelt als: 8.0°
1015.3 hPa 61.6 mm 8.1°
3
92%
14:00
13°
1012.9 hPa 67.9 mm 10.6°
4
1%
20:00
15°
1013.2 hPa 70.6 mm 11.4°
6
1%
 07:38     20:53    Daglengte: 13:15 Dinsdag 14 Apr
02:00
Voelt als: 8.4°
1017.1 hPa 0.8 mm 5.0°
2
35%
08:00
Voelt als: 5.9°
1016.9 hPa 0.8 mm 4.2°
2
42%
14:00
15°
1015.8 hPa 0.6 mm 5.9°
1
41%
20:00
15°
1014.7 hPa 0.5 mm 6.5°
1
42%
 07:36     20:54    Daglengte: 13:18 Woensdag 15 Apr
02:00
Voelt als: 8.6°
1018.1 hPa 0.3 mm 4.4°
1
36%
08:00
Voelt als: 6.5°
1018.4 hPa 0.2 mm 3.9°
1
32%
14:00
16°
1017.3 hPa 0.4 mm 5.9°
1
31%
20:00
16°
1016.0 hPa 0.7 mm 7.4°
0
37%
 07:35     20:55    Daglengte: 13:20 Donderdag 16 Apr
02:00
1018.8 hPa 0.4 mm 5.7°
1
34%
08:00
1018.5 hPa 0.8 mm 5.1°
1
38%
14:00
17°
1016.9 hPa 0.5 mm 6.3°
0
36%
20:00
17°
1015.3 hPa 0.2 mm 7.6°
0
42%
 07:33     20:56    Daglengte: 13:23 Vrijdag 17 Apr
02:00
10°
1018.1 hPa   5.6°
1
28%
08:00
Voelt als: 7.6°
1018.4 hPa   4.8°
1
28%
14:00
17°
1016.5 hPa 0.1 mm 5.6°
1
37%
20:00
17°
1014.7 hPa 0.2 mm 7.0°
1
38%
 07:32     20:57    Daglengte: 13:25 Zaterdag 18 Apr
02:00
10°
Voelt als: 9.7°
1017.5 hPa 0.2 mm 5.4°
1
31%
08:00
Voelt als: 7.0°
1017.6 hPa   4.1°
1
23%
14:00
17°
1015.8 hPa 0.2 mm 5.3°
1
21%
20:00
18°
1013.9 hPa 0.3 mm 6.7°
1
30%
 07:30     20:58    Daglengte: 13:28 Zondag 19 Apr
02:00
10°
1016.7 hPa 0.3 mm 5.3°
1
34%
  CAPE Lifted Index Hail Supercell Tornado SRH 3km CL BTM PRES CL TOP PRES Swiss DWD icon SMHI TS
 07:53     20:43    Daglengte: 12:50 Vandaag
05:00 0 J/kg 9.4 K 0 % 0 % 0 % 0 m²/s² 0 0 18.58 0
06:00 0 J/kg 9.3 K 0 % 0 % 0 % 0 m²/s² 0 0 18.48 0
07:00 0 J/kg 8.3 K 0 % 0 % 0 % 0 m²/s² 0 0 17.51 0
08:00 0 J/kg 7.4 K 0 % 0 % 0 % 0 m²/s² 0 0 16.58 0
09:00 0 J/kg 6.4 K 0 % 0 % 0 % 0 m²/s² 0 0 16.03 0
10:00 1 J/kg 6.6 K 0 % 0 % 0 % 0 m²/s² 0 0 16.23 0
11:00 1 J/kg 8.0 K 0 % 0 % 0 % 0 m²/s² 0 0 17.63 0
12:00 0 J/kg 8.4 K 0 % 0 % 0 % 0 m²/s² 0 0 18.51 0
13:00 0 J/kg 6.2 K 0 % 0 % 0 % 0 m²/s² 0 0 16.85 0
14:00 0 J/kg 6.3 K 0 % 0 % 0 % 0 m²/s² 0 0 16.92 1
15:00 0 J/kg 6.1 K 0 % 0 % 0 % 0 m²/s² 0 0 16.15 0
16:00 0 J/kg 5.3 K 0 % 0 % 0 % 0 m²/s² 0 0 14.03 2
17:00 0 J/kg 4.8 K 0 % 0 % 0 % 0 m²/s² 0 0 13.2 3
18:00 0 J/kg 4.2 K 0 % 0 % 0 % 0 m²/s² 0 0 12.27 3
19:00 0 J/kg 3.6 K 0 % 0 % 0 % 0 m²/s² 0 0 9.78 3
20:00 0 J/kg 2.6 K 0 % 0 % 0 % 0 m²/s² 0 0 6.95 3
21:00 0 J/kg 3.2 K 0 % 0 % 0 % 0 m²/s² 0 0 5.54 3
22:00 0 J/kg 4.1 K 0 % 0 % 0 % 0 m²/s² 0 0 6.65 3
23:00 0 J/kg 4.3 K 0 % 0 % 0 % 0 m²/s² 0 0 6.1 3
 07:52     20:44    Daglengte: 12:52 Morgen
00:00 0 J/kg 4.5 K 0 % 0 % 0 % 0 m²/s² 0 0 5.76 3
01:00 0 J/kg 5.0 K 0 % 0 % 0 % 0 m²/s² 0 0 5.54 3
02:00 0 J/kg 5.0 K 0 % 0 % 0 % 0 m²/s² 0 0 5.33 61
03:00 0 J/kg 4.5 K 0 % 0 % 0 % 0 m²/s² 0 0 5.13 61
04:00 0 J/kg 4.1 K 0 % 0 % 0 % 0 m²/s² 0 0 4.88 61
05:00 0 J/kg 3.9 K 0 % 0 % 0 % 0 m²/s² 0 0 4.95 61
06:00 0 J/kg 3.6 K 0 % 0 % 0 % 0 m²/s² 0 0 5.49 3
07:00 0 J/kg 3.6 K 0 % 0 % 0 % 0 m²/s² 0 0 5.67 61
08:00 0 J/kg 3.9 K 0 % 0 % 0 % 0 m²/s² 0 0 6.12 3
09:00 0 J/kg 3.8 K 0 % 0 % 0 % 0 m²/s² 0 0 5.96 3
10:00 0 J/kg 3.6 K 0 % 0 % 0 % 0 m²/s² 0 0 5.43 3
11:00 0 J/kg 3.4 K 0 % 0 % 0 % 0 m²/s² 0 0 4.21 3
12:00 1 J/kg 3.6 K 0 % 0 % 0 % 0 m²/s² 0 0 4.05 3
13:00 1 J/kg 2.9 K 0 % 0 % 0 % 0 m²/s² 0 0 3.62 3
14:00 6 J/kg 2.4 K 0 % 0 % 0 % 0 m²/s² 0 0 3.24 3
15:00 18 J/kg 1.0 K 0 % 0 % 0 % 0 m²/s² 0 0 1.96 3
16:00 29 J/kg 0.8 K 0 % 0 % 0 % 0 m²/s² 0 0 1.85 61
17:00 39 J/kg 0.5 K 0 % 0 % 0 % 0 m²/s² 0 0 1.55 61
18:00 61 J/kg 0.4 K 0 % 0 % 0 % 0 m²/s² 0 0 1.09 61
19:00 84 J/kg -0.1 K 0 % 0 % 0 % 0 m²/s² 0 0 0.23 61
20:00 33 J/kg -0.2 K 0 % 0 % 0 % 0 m²/s² 0 0 0.55 3
21:00 62 J/kg 0.0 K 0 % 0 % 0 % 0 m²/s² 0 0 0.24 3
22:00 69 J/kg -0.1 K 0 % 0 % 0 % 0 m²/s² 0 0 0.38 3
23:00 60 J/kg -0.1 K 0 % 0 % 0 % 0 m²/s² 0 0 -0.01 3
 07:50     20:45    Daglengte: 12:55 Maandag 06 Apr
00:00 74 J/kg -0.9 K 0 % 0 % 0 % 0 m²/s² 0 0 -0.78 3
01:00 119 J/kg -0.3 K 0 % 0 % 0 % 0 m²/s² 0 0 -0.21 61
02:00 134 J/kg 0.2 K 0 % 0 % 0 % 0 m²/s² 0 0 0.29 61
03:00 102 J/kg -0.3 K 0 % 0 % 0 % 0 m²/s² 0 0 0.3 80
04:00 86 J/kg -0.3 K 0 % 0 % 0 % 0 m²/s² 0 0 0.57 61
05:00 136 J/kg 0.1 K 0 % 0 % 0 % 0 m²/s² 0 0 1.18 61
06:00 204 J/kg -0.3 K 0 % 0 % 0 % 0 m²/s² 0 0 1.02 80
07:00 159 J/kg 0.2 K 0 % 0 % 0 % 0 m²/s² 0 0 0.32 80
08:00 0 J/kg 1.4 K 0 % 0 % 0 % 0 m²/s² 0 0 2.51 80
09:00 60 J/kg 0.4 K 0 % 0 % 0 % 0 m²/s² 0 0 1.72 80
10:00 169 J/kg -0.5 K 0 % 0 % 0 % 0 m²/s² 0 0 1.45 80
11:00 209 J/kg -0.7 K 0 % 0 % 0 % 0 m²/s² 0 0 1.25 61
12:00 132 J/kg 0.0 K 0 % 0 % 0 % 0 m²/s² 0 0 1.59 61
13:00 104 J/kg 0.1 K 0 % 0 % 0 % 0 m²/s² 0 0 1.42 61
14:00 81 J/kg 0.2 K 0 % 0 % 0 % 0 m²/s² 0 0 1.16 61
15:00 35 J/kg 0.4 K 0 % 0 % 0 % 0 m²/s² 0 0 1.21 61
16:00 9 J/kg 0.7 K 0 % 0 % 0 % 0 m²/s² 0 0 1.66 61
17:00 19 J/kg 0.7 K 0 % 0 % 0 % 0 m²/s² 0 0 1.6 61
18:00 53 J/kg -0.1 K 0 % 0 % 0 % 0 m²/s² 0 0 0.53 61
19:00 18 J/kg -0.2 K 0 % 0 % 0 % 0 m²/s² 0 0 0.25 61
20:00 0 J/kg 0.5 K 0 % 0 % 0 % 0 m²/s² 0 0 0.92 61
21:00 5 J/kg 0.6 K 0 % 0 % 0 % 0 m²/s² 0 0 1.02 80
22:00 32 J/kg 0.0 K 0 % 0 % 0 % 0 m²/s² 0 0 0.39 80
23:00 42 J/kg 0.1 K 0 % 0 % 0 % 0 m²/s² 0 0 0.4 80
 07:48     20:46    Daglengte: 12:58 Dinsdag 07 Apr
00:00 69 J/kg 0.0 K 0 % 0 % 0 % 0 m²/s² 0 0 0.42 80
01:00 56 J/kg -0.4 K 0 % 0 % 0 % 0 m²/s² 0 0 0.2 80
02:00 15 J/kg -0.9 K 0 % 0 % 0 % 0 m²/s² 0 0 -0.21 80
03:00 1 J/kg -0.9 K 0 % 0 % 0 % 0 m²/s² 0 0 -0.21
04:00 0 J/kg -0.9 K 0 % 0 % 0 % 0 m²/s² 0 0 -0.3
Temp Baro Wind Neerslag
  EWN Forecast EWN WRFDA DWD ICON FMI HIRLAM MET Norway GFS
 07:53     20:43    Daglengte: 12:50 Vandaag
05:00 5.4° 1016.2 hPa 2.5 m/s 0.0 mm 6.3° 1013.6 hPa 2.8 m/s 0.0 mm 6.4° 1016.8 hPa 1.2 m/s -2.0 mm 3.8° 1018.0 hPa 2.8 m/s 0.0 mm 4.6° 1016.1 hPa 2.5 m/s 8.3° 1016.8 hPa 3.7 m/s
08:00 4.0° 1017.6 hPa 2.4 m/s 0.0 mm 4.8° 1014.3 hPa 3.6 m/s 0.0 mm 4.2° 1018.3 hPa 1.0 m/s 0.0 mm 2.2° 1019.0 hPa 2.6 m/s 0.0 mm 3.7° 1017.7 hPa 2.2 m/s 6.4° 1017.0 hPa 3.3 m/s
11:00 9.8° 1017.7 hPa 3.3 m/s 0.0 mm 6.5° 1015.4 hPa 3.8 m/s 0.0 mm 10.7° 1018.4 hPa 2.5 m/s 0.0 mm 9.2° 1016.9 hPa 3.7 m/s 0.0 mm 10.4° 1017.9 hPa 2.8 m/s 10.9° 1016.0 hPa 3.8 m/s
14:00 16.7° 1014.7 hPa 5.9 m/s 0.0 mm 15.8° 1014.0 hPa 6.5 m/s 0.0 mm 16.8° 1015.5 hPa 3.9 m/s 0.0 mm 16.6° 1014.4 hPa 7.4 m/s 0.0 mm 16.7° 1014.7 hPa 5.9 m/s 16.6° 1014.4 hPa 6.8 m/s
17:00 18.0° 1012.7 hPa 6.2 m/s 0.0 mm 17.3° 1012.6 hPa 7.3 m/s 0.0 mm 17.6° 1013.7 hPa 5.0 m/s 0.0 mm 18.9° 1012.1 hPa 6.8 m/s 0.0 mm 17.9° 1012.8 hPa 5.9 m/s 17.9° 1012.6 hPa 7.9 m/s
20:00 15.8° 1013.1 hPa 5.9 m/s 0.0 mm 16.2° 1012.9 hPa 8.4 m/s 0.0 mm 15.4° 1014.0 hPa 3.6 m/s 0.0 mm 17.8° 1012.5 hPa 6.8 m/s 0.0 mm 14.6° 1013.2 hPa 5.4 m/s 15.1° 1013.8 hPa 6.4 m/s
23:00 12.8° 1015.3 hPa 6.7 m/s 0.0 mm 12.7° 1015.2 hPa 8.3 m/s 0.0 mm 12.6° 1015.8 hPa 4.0 m/s 0.0 mm 14.7° 1014.8 hPa 8.1 m/s 0.0 mm 11.9° 1015.4 hPa 5.8 m/s 12.0° 1016.8 hPa 7.0 m/s
 07:52     20:44    Daglengte: 12:52 Morgen
02:00 11.0° 1016.9 hPa 4.2 m/s 0.0 mm 11.6° 1016.8 hPa 5.9 m/s 0.0 mm 10.2° 1017.0 hPa 3.0 m/s 0.1 mm 12.2° 1016.3 hPa 6.5 m/s 0.0 mm 10.1° 1017.4 hPa 3.4 m/s 11.3° 1017.8 hPa 2.7 m/s
05:00 9.5° 1017.0 hPa 3.8 m/s 0.2 mm 9.4° 1016.7 hPa 6.3 m/s 0.2 mm 9.1° 1017.4 hPa 1.4 m/s 0.4 mm 11.0° 1016.7 hPa 5.5 m/s 0.0 mm 9.1° 1017.1 hPa 3.4 m/s 10.7° 1017.2 hPa 5.3 m/s
08:00 8.9° 1018.2 hPa 3.3 m/s 0.0 mm 8.7° 1016.9 hPa 5.1 m/s 1.5 mm 8.8° 1018.5 hPa 1.9 m/s 0.1 mm 9.2° 1018.2 hPa 3.5 m/s 0.0 mm 8.8° 1018.3 hPa 3.0 m/s 8.9° 1017.9 hPa 3.6 m/s
11:00 11.1° 1019.1 hPa 3.3 m/s 0.0 mm 10.4° 1017.7 hPa 4.0 m/s 2.1 mm 10.2° 1019.8 hPa 2.1 m/s 0.0 mm 12.8° 1017.8 hPa 4.3 m/s 0.0 mm 11.7° 1019.3 hPa 3.1 m/s 10.3° 1018.3 hPa 3.6 m/s
14:00 15.2° 1017.3 hPa 3.4 m/s 0.0 mm 14.2° 1016.9 hPa 3.2 m/s 2.7 mm 13.3° 1017.8 hPa 1.8 m/s 0.0 mm 16.9° 1016.4 hPa 4.4 m/s 0.0 mm 16.6° 1017.2 hPa 3.9 m/s 13.4° 1016.5 hPa 2.3 m/s
17:00 17.2° 1015.5 hPa 2.9 m/s 0.0 mm 18.2° 1014.7 hPa 5.0 m/s 2.8 mm 13.7° 1017.0 hPa 0.4 m/s 0.6 mm 18.4° 1014.4 hPa 3.7 m/s 0.0 mm 17.5° 1015.5 hPa 2.9 m/s 17.9° 1014.6 hPa 3.4 m/s
20:00 15.3° 1015.8 hPa 2.4 m/s 0.3 mm 17.2° 1014.0 hPa 4.3 m/s 3.2 mm 13.0° 1017.5 hPa 0.6 m/s 1.1 mm 17.1° 1014.2 hPa 2.9 m/s 0.0 mm 14.4° 1016.1 hPa 2.2 m/s 16.5° 1014.7 hPa 3.3 m/s
23:00 12.5° 1017.6 hPa 2.1 m/s 0.0 mm 14.8° 1016.0 hPa 5.2 m/s 5.0 mm 11.8° 1018.8 hPa 0.8 m/s 0.1 mm 12.3° 1017.6 hPa 2.2 m/s 13.7° 1016.8 hPa 5.5 m/s
 07:50     20:45    Daglengte: 12:55 Maandag 06 Apr
02:00 11.9° 1017.3 hPa 2.8 m/s 9.9 mm 13.1° 1016.0 hPa 3.4 m/s 52.6 mm 11.2° 1018.6 hPa 0.5 m/s 2.3 mm 11.8° 1017.2 hPa 3.0 m/s 12.6° 1016.9 hPa 6.3 m/s
05:00 11.5° 1016.5 hPa 4.0 m/s 12.8 mm 12.7° 1015.8 hPa 5.1 m/s 68.3 mm 11.1° 1018.1 hPa 1.2 m/s 3.3 mm 11.3° 1016.2 hPa 4.4 m/s 12.5° 1016.7 hPa 5.0 m/s
08:00 11.8° 1017.2 hPa 4.2 m/s 13.5 mm 11.4° 1017.0 hPa 4.5 m/s 73.7 mm 11.4° 1018.8 hPa 1.4 m/s 1.0 mm 11.9° 1016.9 hPa 5.1 m/s 11.1° 1017.6 hPa 4.1 m/s
11:00 13.4° 1019.2 hPa 4.5 m/s 26.4 mm 14.4° 1019.0 hPa 3.2 m/s 76.2 mm 12.1° 1020.1 hPa 2.4 m/s 1.5 mm 13.5° 1019.0 hPa 6.0 m/s 14.1° 1019.3 hPa 5.2 m/s
14:00 14.3° 1020.0 hPa 4.1 m/s 17.7 mm 17.8° 1019.4 hPa 4.2 m/s 76.2 mm 13.3° 1020.1 hPa 3.0 m/s 5.9 mm 14.0° 1020.1 hPa 4.4 m/s 17.2° 1019.6 hPa 6.1 m/s
17:00 16.4° 1019.4 hPa 3.1 m/s 20.7 mm 19.2° 1019.1 hPa 6.2 m/s 76.2 mm 13.6° 1019.4 hPa 2.2 m/s 4.2 mm 16.6° 1019.4 hPa 2.8 m/s 19.2° 1019.2 hPa 5.6 m/s
20:00 15.2° 1020.0 hPa 1.8 m/s 28.3 mm 17.4° 1019.2 hPa 4.0 m/s 76.2 mm 12.9° 1020.1 hPa 1.6 m/s 4.3 mm 15.3° 1020.2 hPa 1.5 m/s 16.9° 1019.8 hPa 3.5 m/s
23:00 12.9° 1021.9 hPa 2.2 m/s 26.1 mm 15.5° 1021.8 hPa 1.1 m/s 76.2 mm 12.4° 1021.1 hPa 1.7 m/s 1.0 mm 12.7° 1022.2 hPa 2.8 m/s 13.6° 1022.8 hPa 1.7 m/s
 07:48     20:46    Daglengte: 12:58 Dinsdag 07 Apr
02:00 11.2° 1023.3 hPa 3.7 m/s 26.3 mm 13.0° 1023.0 hPa 4.1 m/s 76.2 mm 12.0° 1020.9 hPa 1.3 m/s 1.3 mm 10.1° 1024.3 hPa 4.1 m/s 11.9° 1023.5 hPa 2.1 m/s
05:00 9.3° 1024.7 hPa 4.0 m/s 76.4 mm 11.5° 1022.6 hPa 4.6 m/s 76.4 mm 8.9° 1025.1 hPa 3.9 m/s 10.6° 1023.3 hPa 4.1 m/s
08:00 8.3° 1025.5 hPa 3.7 m/s 76.4 mm 11.1° 1022.9 hPa 3.1 m/s 76.4 mm 7.8° 1025.9 hPa 3.8 m/s 9.9° 1023.9 hPa 3.3 m/s
11:00 13.1° 1025.3 hPa 2.1 m/s 10.2 mm 13.1° 1025.5 hPa 2.1 m/s 13.8° 1023.6 hPa 2.3 m/s 10.2 mm
14:00 15.8° 1025.1 hPa 1.3 m/s 10.5 mm 15.7° 1025.3 hPa 1.3 m/s 16.4° 1022.7 hPa 1.9 m/s 10.5 mm
17:00 15.9° 1024.1 hPa 1.3 m/s 11.0 mm 15.7° 1024.4 hPa 1.4 m/s 18.3° 1020.7 hPa 1.0 m/s 11.0 mm
20:00 15.7° 1023.3 hPa 1.6 m/s 14.0 mm 15.7° 1023.5 hPa 1.4 m/s 16.3° 1020.8 hPa 3.8 m/s 14.0 mm
23:00 12.7° 1025.2 hPa 1.8 m/s 15.7 mm 12.6° 1025.3 hPa 1.5 m/s 12.9° 1023.1 hPa 4.8 m/s 15.7 mm
 07:47     20:47    Daglengte: 13:00 Woensdag 08 Apr
02:00 9.7° 1026.9 hPa 1.8 m/s 15.7 mm 9.6° 1027.2 hPa 1.7 m/s 11.0° 1024.0 hPa 2.4 m/s 15.7 mm
05:00 8.4° 1026.8 hPa 2.0 m/s 15.7 mm 8.2° 1027.1 hPa 1.8 m/s 10.2° 1023.4 hPa 3.7 m/s 15.7 mm
08:00 7.0° 1026.7 hPa 2.0 m/s 15.7 mm 6.8° 1027.0 hPa 1.9 m/s 9.2° 1023.7 hPa 3.2 m/s 15.7 mm
11:00 11.3° 1025.7 hPa 2.0 m/s 15.7 mm 11.1° 1026.0 hPa 1.9 m/s 12.5° 1022.8 hPa 3.6 m/s 15.7 mm
14:00 15.6° 1024.6 hPa 1.8 m/s 15.7 mm 15.5° 1024.9 hPa 1.8 m/s 16.4° 1021.2 hPa 2.3 m/s 15.7 mm
17:00 15.8° 1023.3 hPa 1.3 m/s 15.7 mm 15.6° 1023.7 hPa 1.2 m/s 18.6° 1019.2 hPa 2.3 m/s 15.7 mm
20:00 15.8° 1022.1 hPa 0.7 m/s 15.7 mm 15.6° 1022.4 hPa 0.6 m/s 17.8° 1019.4 hPa 1.3 m/s 15.7 mm
23:00 12.4° 1023.5 hPa 2.1 m/s 15.8 mm 12.2° 1023.7 hPa 2.0 m/s 15.0° 1021.3 hPa 3.2 m/s 15.8 mm
 07:45     20:48    Daglengte: 13:03 Donderdag 09 Apr
02:00 9.1° 1024.6 hPa 3.4 m/s 15.9 mm 8.8° 1024.9 hPa 3.4 m/s 13.0° 1021.8 hPa 4.0 m/s 15.9 mm
05:00 7.6° 1024.4 hPa 2.6 m/s 15.9 mm 7.2° 1024.8 hPa 2.6 m/s 11.5° 1020.4 hPa 2.2 m/s 15.9 mm
08:00 6.0° 1024.4 hPa 1.9 m/s 15.9 mm 5.6° 1024.7 hPa 1.9 m/s 10.5° 1021.1 hPa 2.3 m/s 15.9 mm
11:00 11.0° 1023.0 hPa 3.1 m/s 15.9 mm 10.8° 1023.2 hPa 3.2 m/s 13.3° 1020.8 hPa 2.8 m/s 15.9 mm
14:00 15.6° 1021.6 hPa 4.1 m/s 17.5 mm 15.9° 1021.7 hPa 4.4 m/s 12.2° 1020.9 hPa 1.4 m/s 17.5 mm
17:00 14.7° 1020.9 hPa 4.1 m/s 18.5 mm 14.8° 1021.0 hPa 4.5 m/s 13.7° 1020.2 hPa 0.4 m/s 18.5 mm
20:00 13.7° 1020.2 hPa 4.2 m/s 18.6 mm 13.7° 1020.2 hPa 4.5 m/s 13.5° 1020.3 hPa 1.1 m/s 18.6 mm
23:00 11.3° 1021.6 hPa 3.1 m/s 18.6 mm 11.1° 1021.6 hPa 3.4 m/s 12.9° 1021.4 hPa 0.8 m/s 18.6 mm
 07:44     20:49    Daglengte: 13:05 Vrijdag 10 Apr
02:00 8.7° 1022.9 hPa 2.2 m/s 18.6 mm 8.5° 1023.0 hPa 2.2 m/s 11.1° 1021.9 hPa 1.7 m/s 18.6 mm
05:00 8.1° 1022.6 hPa 2.2 m/s 18.6 mm 7.8° 1022.8 hPa 2.3 m/s 10.7° 1021.0 hPa 1.2 m/s 18.6 mm
08:00 7.4° 1022.5 hPa 2.2 m/s 18.6 mm 7.2° 1022.6 hPa 2.4 m/s 9.8° 1021.3 hPa 0.6 m/s 18.6 mm
11:00 11.5° 1021.6 hPa 2.0 m/s 18.6 mm 11.2° 1021.6 hPa 2.1 m/s 14.2° 1021.2 hPa 0.8 m/s 18.6 mm
14:00 15.5° 1020.5 hPa 1.8 m/s 18.6 mm 15.3° 1020.6 hPa 1.9 m/s 18.1° 1020.0 hPa 0.9 m/s 18.6 mm
17:00 15.6° 1019.3 hPa 1.7 m/s 18.6 mm 15.2° 1019.4 hPa 1.9 m/s 20.4° 1018.2 hPa 0.5 m/s 18.6 mm
20:00 15.4° 1018.2 hPa 1.7 m/s 18.7 mm 15.0° 1018.2 hPa 1.8 m/s 19.6° 1018.1 hPa 0.5 m/s 18.7 mm
23:00 12.2° 1019.8 hPa 2.1 m/s 19.4 mm 11.8° 1019.7 hPa 2.0 m/s 15.7° 1020.9 hPa 3.6 m/s 19.4 mm
 07:42     20:50    Daglengte: 13:08 Zaterdag 11 Apr
02:00 9.1° 1021.1 hPa 2.2 m/s 19.4 mm 8.7° 1021.1 hPa 2.1 m/s 13.0° 1021.3 hPa 3.5 m/s 19.4 mm
08:00 7.4° 1021.5 hPa 2.5 m/s 19.4 mm 7.1° 1021.5 hPa 2.6 m/s 11.1° 1021.1 hPa 1.9 m/s 19.4 mm
14:00 16.2° 1019.4 hPa 3.5 m/s 19.4 mm 16.0° 1019.4 hPa 3.4 m/s 18.0° 1019.5 hPa 4.2 m/s 19.4 mm
20:00 16.0° 1017.2 hPa 3.7 m/s 19.4 mm 15.8° 1017.3 hPa 3.6 m/s 18.3° 1016.2 hPa 4.2 m/s 19.4 mm
 07:41     20:51    Daglengte: 13:10 Zondag 12 Apr
02:00 12.7° 1019.1 hPa 3.3 m/s 19.4 mm 12.7° 1019.3 hPa 3.2 m/s 12.4° 1017.4 hPa 4.0 m/s 19.4 mm
08:00 11.3° 1017.7 hPa 3.8 m/s 19.4 mm 11.4° 1017.9 hPa 3.7 m/s 10.8° 1015.0 hPa 4.8 m/s 19.4 mm
14:00 14.5° 1016.2 hPa 3.3 m/s 20.0 mm 14.6° 1016.6 hPa 3.3 m/s 12.9° 1011.8 hPa 3.3 m/s 20.0 mm
20:00 14.0° 1013.3 hPa 4.4 m/s 23.4 mm 14.3° 1013.6 hPa 4.5 m/s 11.1° 1009.9 hPa 3.6 m/s 23.4 mm
 07:39     20:52    Daglengte: 13:13 Maandag 13 Apr
02:00 10.9° 1015.4 hPa 3.9 m/s 26.6 mm 10.9° 1015.8 hPa 3.9 m/s 10.7° 1010.9 hPa 3.8 m/s 26.6 mm
08:00 9.5° 1015.3 hPa 2.8 m/s 32.7 mm 9.3° 1015.7 hPa 2.7 m/s 11.4° 1010.6 hPa 3.5 m/s 32.7 mm
14:00 12.9° 1012.9 hPa 3.9 m/s 34.6 mm 12.9° 1012.9 hPa 3.9 m/s 34.6 mm
20:00 15.3° 1013.2 hPa 5.9 m/s 35.5 mm 15.3° 1013.2 hPa 5.9 m/s 35.5 mm
 07:38     20:53    Daglengte: 13:15 Dinsdag 14 Apr
02:00 8.9° 1017.1 hPa 1.5 m/s 0.8 mm
08:00 6.9° 1016.9 hPa 1.8 m/s 0.8 mm
14:00 15.4° 1015.8 hPa 0.8 m/s 0.6 mm
20:00 15.1° 1014.7 hPa 1.2 m/s 0.5 mm
 07:36     20:54    Daglengte: 13:18 Woensdag 15 Apr
02:00 8.8° 1018.1 hPa 1.2 m/s 0.3 mm
08:00 6.9° 1018.4 hPa 1.3 m/s 0.2 mm
14:00 16.3° 1017.3 hPa 0.8 m/s 0.4 mm
20:00 16.2° 1016.0 hPa 0.4 m/s 0.7 mm
 07:35     20:55    Daglengte: 13:20 Donderdag 16 Apr
02:00 9.5° 1018.8 hPa 0.8 m/s 0.4 mm
08:00 7.3° 1018.5 hPa 0.8 m/s 0.8 mm
14:00 16.7° 1016.9 hPa 0.5 m/s 0.5 mm
20:00 16.9° 1015.3 hPa 0.1 m/s 0.2 mm
 07:33     20:56    Daglengte: 13:23 Vrijdag 17 Apr
02:00 9.8° 1018.1 hPa 0.7 m/s 0.0 mm
08:00 7.7° 1018.4 hPa 1.1 m/s 0.0 mm
14:00 17.3° 1016.5 hPa 1.2 m/s 0.1 mm
20:00 17.2° 1014.7 hPa 0.6 m/s 0.2 mm
 07:32     20:57    Daglengte: 13:25 Zaterdag 18 Apr
02:00 9.7° 1017.5 hPa 0.8 m/s 0.2 mm
08:00 7.3° 1017.6 hPa 1.1 m/s 0.0 mm
14:00 17.4° 1015.8 hPa 1.3 m/s 0.2 mm
20:00 17.5° 1013.9 hPa 0.7 m/s 0.3 mm
 07:30     20:58    Daglengte: 13:28 Zondag 19 Apr
02:00 10.2° 1016.7 hPa 1.3 m/s 0.3 mm
FMI Hirlam - 7.5 km EWN WRFDA - 12 km DWD ICON - 7 km GFS - 25 km Basiskaart






























































Updatetijd (Europe/Amsterdam) Resolutie Lengte Stap
FMI Hirlam 01:45, 07:45, 13:45, 19:45 7.5 km 49h 1h
EWN WRFDA 03:45, 09:45, 15:45, 21:45 12 km 73h 1h
DWD ICON 23:45, 05:45, 11:45, 17:45 7 km 75h 1h
GFS 01:45, 07:45, 13:45, 19:45 25 km 237h 3h
30+ mm
25-30 mm
20-25 mm
15-20 mm
10-15 mm
6-10 mm
4-6 mm
2-4 mm
1-2 mm
0.5-1 mm
0.2-0.5 mm
0.1-0.2 mm
30+ mm
25-30 mm
20-25 mm
15-20 mm
10-15 mm
6-10 mm
4-6 mm
2-4 mm
1-2 mm
0.5-1 mm
0.2-0.5 mm
0.1-0.2 mm
Sneeuwval
Natte sneeuw
Hagel
Vorst
30+ mm
25-30 mm
20-25 mm
15-20 mm
10-15 mm
6-10 mm
4-6 mm
2-4 mm
1-2 mm
0.5-1 mm
0.2-0.5 mm
0.1-0.2 mm
Sneeuwval
Natte sneeuw
Hagel
Vorst
Onweer
50 mm
40 mm
30 mm
26 mm
22 mm
18 mm
14 mm
10 mm
9 mm
8 mm
7 mm
6 mm
5 mm
4.5 mm
4 mm
3.5 mm
3 mm
2.5 mm
2 mm
1.5 mm
1 mm
0.8 mm
0.6 mm
0.4 mm
0.2 mm
0.05 mm
35°
30°
25°
20°
15°
10°
-5°
-10°
-15°
-20°
-25°
-30°
-35°
33> m/s
29 m/s
25 m/s
21 m/s
17 m/s
14 m/s
11 m/s
8 m/s
5 m/s
3 m/s
0 m/s
2600 J/kg
2400 J/kg
2200 J/kg
2000 J/kg
1800 J/kg
1600 J/kg
1400 J/kg
1200 J/kg
1000 J/kg
800 J/kg
600 J/kg
400 J/kg
200 J/kg
70 dBZ
65 dBZ
60 dBZ
55 dBZ
50 dBZ
45 dBZ
40 dBZ
35 dBZ
30 dBZ
25 dBZ
20 dBZ
15 dBZ
10 dBZ
5 dBZ
-1 K
-2 K
-3 K
-4 K
-5 K
-6 K
-7 K
-8 K
-9 K
950 m²/s²
900 m²/s²
850 m²/s²
800 m²/s²
750 m²/s²
700 m²/s²
650 m²/s²
600 m²/s²
550 m²/s²